Погода в Безводовке

Россия / Ульяновская область     53°31′51″N   47°57′38″E
темп.,
°C
ветер,
м/с
пор.,
м/с
влажн.,
%
обл.,
%
осадки,
мм/ч
давл.,
гПа
погр.,
м
9 декабря, чт
чт901:00−1ююв61493100 0.0 1025430
04:00−1ююв61393100 0.0 1024439
07:00−1юв61193100 0.0 1023487
10:00−2юв61087100 0.0 1023447
13:00−1ююв587873 0.0 1022512
16:00−1ююв3682100 0.0 1022452
19:00−2ююв2487100 0.0 1023287
22:00−1всв1189100 0.0 102365
10 декабря, пт
пт1001:00−1ссв2488100 0.0 1023211
04:00−2ссв3688100 0.0 1024266
07:00−2ссв4989100 0.0 1025404
10:00−2ссв51189100 0.0 1026564
13:00−1ссв71082100 0.0 1027642
16:00−3ссв7118299 0.1 1029592
19:00−5ссв713705 0.0 1030431
22:00−6ссв713663 0.0 1031422
11 декабря, сб
сб1101:00−7ссв612685 0.0 1033393
04:00−8ссв612692 0.0 1034345
07:00−9ссв612691 0.0 1034360
10:00−9ссв613661 0.0 1035382
13:00−7св611530 0.0 1036408
16:00−6св613540 0.0 1037456
19:00−7св613610 0.0 1038425
22:00−7всв513650 0.0 1039384
12 декабря, вс
вс1201:00−7всв511680 0.0 1040347
04:00−8в38714 0.0 1041246
07:00−8в26715 0.0 1041164
10:00−7вюв26655 0.0 1043167
13:00−5юв24500 0.0 1042229
16:00−5юв24534 0.0 1043118
19:00−6юв24565 0.0 1043104
22:00−6ююв25585 0.0 1043124
13 декабря, пн
пн1301:00−7ююв24595 0.0 104382
04:00−7ююв24590 0.0 104376
07:00−7ююв35625 0.0 1042107
10:00−7ююв25610 0.0 1042132
13:00−5ю465049 0.0 1041228
16:00−5ю365683 0.0 1040184
19:00−6ю3659100 0.0 1040133
22:00−6ю3759100 0.0 1039158